Location: Azul
(36.7830°S, 59.8500°W)
Time: 02:56:47
(UTC-03:00)

CAS-4A - Pass Details

Date: 23 October 2021
Orbit: 529 x 539 km, 43.0° (Epoch: 04 December)

Event Time Altitude Azimuth Distance (km) Brightness Sun altitude
Exits shadow 05:14:06 - 256° (WSW) 1,869 ? -10.3°
Reaches altitude 10° 05:14:19 10° 255° (WSW) 1,791 ? -10.3°
Maximum altitude 05:18:07 36° 187° (S) 871 ? -9.6°
Drops below altitude 10° 05:21:56 10° 120° (ESE) 1,796 ? -8.9°
Sets 05:24:19 0° 110° (ESE) 2,688 ? -8.4°
